CST,Max TemperatureF,Mean TemperatureF,Min TemperatureF,Max Dew PointF,MeanDew PointF,Min DewpointF,Max Humidity, Mean Humidity, Min Humidity, Max Sea Level PressureIn, Mean Sea Level PressureIn, Min Sea Level PressureIn, Max VisibilityMiles, Mean VisibilityMiles, Min VisibilityMiles, Max Wind SpeedMPH, Mean Wind SpeedMPH, Max Gust SpeedMPH,PrecipitationIn, CloudCover, Events, WindDirDegrees
2012-12-1,33,30,28,34,30,27,100,93,87,29.87,29.74,29.68,10,3,0,22,14,25,0.00,8,Fog-Rain,192
2012-12-2,35,30,26,34,29,25,100,94,93,29.88,29.74,29.51,10,5,0,24,11,17,0.00,7,Fog,166
2012-12-3,39,26,12,37,28,5,93,85,68,29.72,29.44,29.32,10,7,2,32,14,46,0.06,6,Rain-Snow,214
2012-12-4,17,14,10,12,9,3,86,79,73,30.35,30.11,29.75,10,8,3,24,18,32,0.00,8,Snow,290
2012-12-5,30,22,15,25,16,12,86,74,59,30.34,29.97,29.55,10,10,10,30,18,28,0.00,3,,157
2012-12-6,35,26,17,28,18,10,87,77,68,29.92,29.72,29.51,10,10,10,30,17,37,0.00,7,Snow,276
2012-12-7,17,12,6,10,4,1,85,72,62,30.09,30.03,29.92,10,10,4,21,12,23,0.00,3,Snow,316
2012-12-8,14,10,5,10,6,1,92,86,79,30.17,30.06,30.00,10,6,1,14,5,,0.00,5,Snow,56
2012-12-9,8,0,-11,5,-5,-15,92,81,71,30.32,30.23,30.11,10,10,10,15,10,,0.00,3,,348
2012-12-10,10,-3,-16,9,-6,-20,92,82,72,30.10,29.85,29.66,10,9,2,16,5,,0.00,4,Snow,164
2012-12-11,10,0,-11,9,-4,-17,92,79,66,29.92,29.77,29.64,10,10,2,20,9,25,0.00,3,Snow,295
2012-12-12,10,0,-11,7,0,-17,92,83,77,29.96,29.88,29.80,10,6,1,12,5,18,0.00,7,Snow,68
2012-12-13,15,10,5,12,5,1,92,84,79,30.09,30.05,29.96,10,8,2,13,6,,0.00,8,Snow,200
2012-12-14,26,20,15,21,18,12,100,87,69,30.06,29.93,29.79,10,9,1,21,12,,0.00,3,Snow,153
2012-12-15,26,20,15,27,21,16,100,95,86,29.79,29.68,29.61,10,5,1,20,7,,0.00,4,,6
2012-12-16,21,18,15,19,17,12,100,91,86,29.79,29.74,29.66,10,9,3,20,14,26,0.00,8,Snow,337
2012-12-17,19,16,12,18,12,10,100,91,79,29.76,29.70,29.65,10,8,2,12,6,,0.00,8,Snow,247
2012-12-18,19,16,12,18,13,10,93,90,86,29.72,29.67,29.65,10,8,2,9,4,,0.00,8,Snow,147
2012-12-19,23,19,15,21,18,12,93,91,86,30.02,29.83,29.72,10,7,2,14,4,,0.00,8,Snow,356
2012-12-20,14,8,1,10,3,-2,92,84,73,30.16,30.09,30.01,10,10,7,15,10,,0.00,5,Snow,329
2012-12-21,6,2,-2,3,1,-6,92,88,78,30.24,30.19,30.08,10,9,2,12,7,,0.00,6,Snow,228
2012-12-22,10,,10,7,7,7,85,85,85,30.12,30.12,30.12,10,10,10,15,15,18,0.00,8,,340
2012-12-23,,,,,,,,,,,,,,,,,,,,,,
2012-12-24,,,,,,,,,,,,,,,,,,,,,,
2012-12-25,-5,-10,-14,-9,-14,-18,84,80,77,30.39,30.38,30.37,10,10,7,10,4,,0.00,0,,183
2012-12-26,-2,-8,-14,-8,-13,-20,84,80,71,30.37,30.30,30.27,10,10,10,7,3,,0.00,1,,165
2012-12-27,10,-2,-14,7,-2,-18,92,83,73,30.28,30.22,30.14,10,9,3,7,1,,0.00,6,Snow,133
2012-12-28,12,9,6,10,7,3,92,88,85,30.13,30.03,29.94,10,6,1,12,4,,0.00,8,Snow,167
2012-12-29,12,2,-9,9,4,-13,92,84,73,30.01,29.97,29.92,10,7,2,9,5,,0.00,6,Snow,260
2012-12-30,17,4,-9,16,4,-15,93,85,77,30.01,29.90,29.79,10,7,0,25,10,30,0.00,7,Snow,218
2012-12-31,-2,-8,-14,-8,-13,-20,85,81,77,30.19,30.14,30.01,10,10,4,18,9,,0.00,0,,274